TimeMST,TemperatureF,Dew PointF,Humidity,Sea Level PressureIn,VisibilityMPH,Wind Direction,Wind SpeedMPH,Gust SpeedMPH,PrecipitationIn,Events,Conditions,WindDirDegrees,DateUTC
12:02 AM,28.4,26.6,93,29.87,0.8,Calm,Calm,-,0.00,Snow,Light Snow,0,2013-02-26 07:02:00
12:14 AM,26.6,24.8,93,29.86,0.5,SE,5.8,-,0.01,Fog-Snow,Snow,130,2013-02-26 07:14:00
12:17 AM,26.6,24.8,93,29.86,0.8,SE,4.6,-,0.02,Snow,Light Snow,130,2013-02-26 07:17:00
12:21 AM,26.6,26.6,100,29.86,1.2,SE,3.5,-,0.02,Snow,Light Snow,130,2013-02-26 07:21:00
12:26 AM,26.6,26.6,100,29.86,3.0,Calm,Calm,-,0.02,Snow,Light Snow,0,2013-02-26 07:26:00
12:33 AM,26.6,26.6,100,29.87,7.0,Calm,Calm,-,0.02,,Overcast,0,2013-02-26 07:33:00
12:53 AM,28.0,27.0,96,29.97,10.0,WNW,5.8,-,0.02,,Overcast,300,2013-02-26 07:53:00
1:19 AM,28.4,26.6,93,29.88,2.5,NNW,4.6,-,0.00,Snow,Light Snow,330,2013-02-26 08:19:00
1:50 AM,26.6,26.6,100,29.88,4.0,Calm,Calm,-,0.00,Snow,Light Snow,0,2013-02-26 08:50:00
1:53 AM,27.0,25.0,92,29.98,6.0,NW,3.5,-,0.00,Snow,Light Snow,310,2013-02-26 08:53:00
2:53 AM,27.0,23.0,85,29.98,10.0,West,11.5,-,N/A,,Overcast,260,2013-02-26 09:53:00
3:53 AM,25.0,23.0,92,29.99,10.0,NNW,6.9,-,N/A,,Overcast,330,2013-02-26 10:53:00
4:53 AM,23.0,19.0,85,30.01,10.0,West,8.1,-,N/A,,Clear,280,2013-02-26 11:53:00
5:53 AM,21.0,17.1,85,30.05,10.0,West,4.6,-,N/A,,Mostly Cloudy,260,2013-02-26 12:53:00
6:53 AM,21.9,15.1,75,30.06,10.0,WNW,6.9,-,N/A,,Overcast,290,2013-02-26 13:53:00
7:53 AM,19.9,17.1,89,30.09,10.0,Calm,Calm,-,N/A,,Overcast,0,2013-02-26 14:53:00
8:53 AM,30.0,17.1,59,30.09,10.0,NW,13.8,-,N/A,,Overcast,310,2013-02-26 15:53:00
9:53 AM,34.0,17.1,50,30.09,10.0,NW,17.3,-,N/A,,Mostly Cloudy,320,2013-02-26 16:53:00
10:53 AM,35.1,18.0,50,30.09,10.0,NNW,17.3,-,N/A,,Clear,330,2013-02-26 17:53:00
11:53 AM,36.0,16.0,44,30.10,10.0,NNW,17.3,-,N/A,,Clear,340,2013-02-26 18:53:00
12:53 PM,36.0,17.1,46,30.10,10.0,NW,16.1,-,N/A,,Scattered Clouds,320,2013-02-26 19:53:00
1:53 PM,37.0,18.0,46,30.11,10.0,NNW,17.3,21.9,N/A,,Partly Cloudy,330,2013-02-26 20:53:00
2:53 PM,37.9,15.1,39,30.11,10.0,NNW,12.7,-,N/A,,Clear,330,2013-02-26 21:53:00
3:53 PM,37.9,17.1,43,30.14,10.0,NNW,11.5,-,N/A,,Clear,330,2013-02-26 22:53:00
4:53 PM,37.0,16.0,42,30.16,10.0,NNW,11.5,-,N/A,,Clear,340,2013-02-26 23:53:00
5:53 PM,33.1,16.0,50,30.20,10.0,NW,10.4,-,N/A,,Clear,320,2013-02-27 00:53:00
6:53 PM,30.0,19.9,66,30.23,10.0,NW,10.4,-,N/A,,Clear,320,2013-02-27 01:53:00
8:53 PM,26.1,19.0,75,30.26,10.0,West,9.2,-,N/A,,Clear,280,2013-02-27 03:53:00
9:53 PM,23.0,19.0,85,30.27,10.0,South,5.8,-,N/A,,Clear,170,2013-02-27 04:53:00
10:53 PM,19.9,16.0,85,30.30,10.0,SE,4.6,-,N/A,,Partly Cloudy,130,2013-02-27 05:53:00
11:53 PM,19.9,15.1,81,30.32,10.0,Calm,Calm,-,N/A,,Mostly Cloudy,0,2013-02-27 06:53:00